Time,TemperatureF,DewpointF,PressureIn,WindDirection,WindDirectionDegrees,WindSpeedMPH,WindSpeedGustMPH,Humidity,HourlyPrecipIn,Conditions,Clouds,dailyrainin,SoftwareType,DateUTC
2013-02-17 08:21:00,41.0,40.0,-100.00,NNW,331,0.0,1.0,97,0.00,,,0.00,,2013-02-17 16:21:00,
2013-02-17 08:31:00,41.0,40.0,-100.00,NNW,331,0.0,1.0,98,0.00,,,0.00,,2013-02-17 16:31:00,
2013-02-17 08:41:00,41.0,40.0,-100.00,NNW,331,0.0,1.0,98,0.00,,,0.00,,2013-02-17 16:41:00,
2013-02-17 08:51:00,41.0,40.0,-100.00,NNW,331,0.0,1.0,98,0.00,,,0.00,,2013-02-17 16:51:00,
2013-02-17 09:02:00,42.0,41.0,-100.00,NNE,20,1.0,3.0,97,0.00,,,0.00,,2013-02-17 17:02:00,
2013-02-17 09:11:00,42.0,41.0,-100.00,NNE,20,1.0,3.0,97,0.00,,,0.00,,2013-02-17 17:11:00,
2013-02-17 09:21:00,42.0,41.0,-100.00,NNE,20,1.0,3.0,97,0.00,,,0.00,,2013-02-17 17:21:00,
2013-02-17 09:31:00,42.0,41.0,-100.00,NE,38,3.0,5.0,95,0.00,,,0.00,,2013-02-17 17:31:00,
2013-02-17 09:42:00,42.0,41.0,-100.00,NE,38,3.0,5.0,95,0.00,,,0.00,,2013-02-17 17:42:00,
2013-02-17 09:52:00,42.0,41.0,-100.00,NE,38,3.0,5.0,95,0.00,,,0.00,,2013-02-17 17:52:00,
2013-02-17 10:01:00,44.0,42.0,-100.00,NNW,329,3.0,6.0,91,0.00,,,0.00,,2013-02-17 18:01:00,
2013-02-17 10:11:00,44.0,42.0,-100.00,NNW,329,3.0,6.0,91,0.00,,,0.00,,2013-02-17 18:11:00,
2013-02-17 10:21:00,44.0,42.0,-100.00,NNW,329,3.0,6.0,91,0.00,,,0.00,,2013-02-17 18:21:00,
2013-02-17 10:33:00,44.0,41.0,-100.00,NNE,21,3.0,7.0,88,0.00,,,0.00,,2013-02-17 18:33:00,
2013-02-17 10:41:00,44.0,41.0,-100.00,NNE,21,3.0,7.0,88,0.00,,,0.00,,2013-02-17 18:41:00,
2013-02-17 10:52:00,45.0,41.0,-100.00,NNW,332,3.0,8.0,86,0.00,,,0.00,,2013-02-17 18:52:00,
2013-02-17 11:01:00,45.0,40.0,-100.00,NNE,25,1.0,6.0,84,0.00,,,0.00,,2013-02-17 19:01:00,
2013-02-17 11:11:00,45.0,40.0,-100.00,NNE,25,1.0,6.0,84,0.00,,,0.00,,2013-02-17 19:11:00,
2013-02-17 11:21:00,45.0,40.0,-100.00,NNE,25,1.0,6.0,84,0.00,,,0.00,,2013-02-17 19:21:00,
2013-02-17 11:32:00,45.0,40.0,-100.00,NNE,25,1.0,6.0,84,0.00,,,0.00,,2013-02-17 19:32:00,
2013-02-17 11:41:00,45.0,40.0,-100.00,NNE,25,1.0,6.0,84,0.00,,,0.00,,2013-02-17 19:41:00,
2013-02-17 11:52:00,46.0,41.0,-100.00,NW,312,2.0,7.0,84,0.00,,,0.00,,2013-02-17 19:52:00,
2013-02-17 12:01:00,46.0,41.0,-100.00,North,352,3.0,9.0,84,0.00,,,0.00,,2013-02-17 20:01:00,
2013-02-17 12:11:00,46.0,41.0,-100.00,North,352,3.0,9.0,84,0.00,,,0.00,,2013-02-17 20:11:00,
2013-02-17 12:21:00,47.0,41.0,-100.00,North,7,2.0,6.0,80,0.00,,,0.00,,2013-02-17 20:21:00,
2013-02-17 12:31:00,47.0,41.0,-100.00,NNW,339,4.0,10.0,81,0.00,,,0.00,,2013-02-17 20:31:00,
2013-02-17 12:42:00,47.0,41.0,-100.00,NNW,339,4.0,10.0,81,0.00,,,0.00,,2013-02-17 20:42:00,
2013-02-17 12:52:00,47.0,41.0,-100.00,NNW,339,4.0,10.0,81,0.00,,,0.00,,2013-02-17 20:52:00,
2013-02-17 13:01:00,46.0,41.0,-100.00,NNW,336,2.0,7.0,82,0.00,,,0.00,,2013-02-17 21:01:00,
2013-02-17 13:11:00,46.0,41.0,-100.00,NNW,336,2.0,7.0,82,0.00,,,0.00,,2013-02-17 21:11:00,
2013-02-17 13:21:00,47.0,41.0,-100.00,NW,321,5.0,11.0,78,0.00,,,0.00,,2013-02-17 21:21:00,
2013-02-17 13:31:00,48.0,41.0,31.15,NW,308,5.0,9.0,76,0.00,,,0.00,,2013-02-17 21:31:00,
2013-02-17 13:41:00,48.0,41.0,31.15,NW,308,5.0,9.0,76,0.00,,,0.00,,2013-02-17 21:41:00,
2013-02-17 13:52:00,47.0,41.0,31.15,NW,314,4.0,12.0,78,0.00,,,0.00,,2013-02-17 21:52:00,
2013-02-17 14:01:00,47.0,40.0,31.15,NW,313,6.0,13.0,77,0.00,,,0.00,,2013-02-17 22:01:00,
2013-02-17 14:11:00,47.0,40.0,31.15,NW,313,6.0,13.0,77,0.00,,,0.00,,2013-02-17 22:11:00,
2013-02-17 14:21:00,46.0,38.0,31.15,NW,326,7.0,18.0,74,0.00,,,0.00,,2013-02-17 22:21:00,
2013-02-17 14:32:00,46.0,39.0,31.15,NW,306,7.0,15.0,75,0.00,,,0.00,,2013-02-17 22:32:00,
2013-02-17 14:41:00,46.0,39.0,31.15,NW,306,7.0,15.0,75,0.00,,,0.00,,2013-02-17 22:41:00,
2013-02-17 14:52:00,46.0,39.0,31.15,NW,306,7.0,15.0,75,0.00,,,0.00,,2013-02-17 22:52:00,
2013-02-17 15:01:00,46.0,39.0,31.15,NNW,329,7.0,16.0,75,0.00,,,0.00,,2013-02-17 23:01:00,
2013-02-17 15:11:00,46.0,39.0,31.15,NNW,329,7.0,16.0,75,0.00,,,0.00,,2013-02-17 23:11:00,
2013-02-17 15:21:00,45.0,38.0,31.15,NW,316,9.0,15.0,77,0.00,,,0.00,,2013-02-17 23:21:00,
2013-02-17 15:31:00,45.0,39.0,31.15,NW,315,8.0,18.0,78,0.00,,,0.00,,2013-02-17 23:31:00,
2013-02-17 15:41:00,45.0,39.0,31.15,NW,315,8.0,18.0,78,0.00,,,0.00,,2013-02-17 23:41:00,
2013-02-17 15:52:00,45.0,39.0,31.15,NW,326,4.0,13.0,78,0.00,,,0.00,,2013-02-17 23:52:00,
2013-02-17 16:01:00,45.0,39.0,31.15,NNW,336,5.0,12.0,78,0.00,,,0.00,,2013-02-18 00:01:00,
2013-02-17 16:11:00,45.0,39.0,31.15,NNW,336,5.0,12.0,78,0.00,,,0.00,,2013-02-18 00:11:00,
2013-02-17 16:22:00,45.0,39.0,31.15,NNW,336,5.0,12.0,78,0.00,,,0.00,,2013-02-18 00:22:00,
2013-02-17 16:31:00,44.0,38.0,27.61,NW,308,3.0,11.0,79,0.00,,,0.00,,2013-02-18 00:31:00,
2013-02-17 16:42:00,44.0,38.0,27.61,NW,308,3.0,11.0,79,0.00,,,0.00,,2013-02-18 00:42:00,
2013-02-17 16:52:00,44.0,38.0,27.61,NW,320,3.0,11.0,80,0.00,,,0.00,,2013-02-18 00:52:00,
2013-02-17 17:01:00,44.0,39.0,27.61,WNW,301,4.0,13.0,81,0.00,,,0.00,,2013-02-18 01:01:00,
2013-02-17 17:11:00,44.0,39.0,27.61,WNW,301,4.0,13.0,81,0.00,,,0.00,,2013-02-18 01:11:00,
2013-02-17 17:21:00,44.0,39.0,27.61,WNW,301,4.0,13.0,81,0.00,,,0.00,,2013-02-18 01:21:00,
2013-02-17 17:31:00,43.0,37.0,27.61,NW,316,6.0,13.0,80,0.00,,,0.00,,2013-02-18 01:31:00,
2013-02-17 17:41:00,43.0,37.0,27.61,NW,316,6.0,13.0,80,0.00,,,0.00,,2013-02-18 01:41:00,
2013-02-17 17:52:00,43.0,37.0,27.61,NW,316,6.0,13.0,80,0.00,,,0.00,,2013-02-18 01:52:00,